Preview of NWS' New Version of Forecast
This preview is not operational and should not be used for support decisions.

Regional Weather Roundup (RWR)

Issued by National Weather Service (NWS)

                            
000
ASUS43 KBIS 152110
RWRND 

NORTH DAKOTA REGIONAL WEATHER ROUNDUP
NATIONAL WEATHER SERVICE BISMARCK ND
400 PM CDT MON OCT 15 2018

NOTE: "FAIR" INDICATES FEW OR NO CLOUDS BELOW 12,000 FEET WITH NO
SIGNIFICANT WEATHER AND/OR OBSTRUCTIONS TO VISIBILITY.


NDZ001>003-009>011-017-152200-
NORTHWEST NORTH DAKOTA
  
CITY           SKY/WX    TMP DP  RH WIND       PRES   REMARKS
WILLISTON      SUNNY     63  29  27 NW23G29   29.91F                  
MINOT          SUNNY     60  29  30 W23G39    29.82S                  
MINOT AFB      SUNNY     59  30  33 W28G33    29.79S                  
$$
 
NDZ018>021-031>035-040>046-152200-
SOUTHWEST NORTH DAKOTA
  
CITY           SKY/WX    TMP DP  RH WIND       PRES   REMARKS
BISMARCK       CLOUDY    54  31  41 W18G28    29.94F                  
DICKINSON      SUNNY     57  27  31 W29G39    29.94F                  
GARRISON         N/A     56  30  37 W22G33    29.87F                  
HETTINGER ARPT MOSUNNY   57  27  31 W25G35    30.01F                  
$$
 
NDZ004>008-012>016-024-026-027-054-152200-
NORTHEAST NORTH DAKOTA
  
CITY           SKY/WX    TMP DP  RH WIND       PRES   REMARKS
GRAND FORKS    CLOUDY    46  23  40 SW24G31   29.85F                  
GRND FRKS AFB  PTSUNNY   47  23  39 SW20      29.84F                  
DEVILS LAKE    CLOUDY    47  30  51 SW20G26   29.81F                  
$$
 
NDZ022-023-025-028>030-036>039-047>053-152200-
SOUTHEAST NORTH DAKOTA
  
CITY           SKY/WX    TMP DP  RH WIND       PRES   REMARKS
FARGO          CLOUDY    47  22  37 SW23G30   29.96F                  
JAMESTOWN      CLOUDY    50  26  39 W18G30    29.90F                  
$$